Location: Ripley
(48.3812°N, 115.4473°W)
Time: 13:22:59
(UTC+00:00)

AIST 2D - Pass Details

Date: 02 July 2022
Orbit: 433 x 443 km, 97.0° (Epoch: 11 August)

Event Time Altitude Azimuth Distance (km) Brightness Sun altitude
Rises 04:25:43 0° 28° (NNE) 2,427 ? -5.7°
Reaches altitude 10° 04:28:17 10° 50° (NE) 1,553 ? -6.0°
Maximum altitude 04:30:32 17° 92° (E) 1,199 ? -6.3°
Drops below altitude 10° 04:32:45 10° 135° (SE) 1,548 ? -6.6°
Enters shadow 04:33:06 - 139° (SE) 1,650 ? -6.6°
